Location: Bacharowice
(49.9333°N, 19.5833°E)
Time: 12:12:35
(UTC+00:00)

Meteor 2-6 Rocket - Pass Details

Date: 11 May 2021
Orbit: 807 x 913 km, 81.3° (Epoch: 22 June)

Event Time Altitude Azimuth Distance (km) Brightness Sun altitude
Exits shadow 20:12:21 10° 190° (S) 2,363 6.1 -14.7°
Maximum altitude 20:17:41 90° 106° (ESE) 830 4.1 -15.2°
Drops below altitude 10° 20:23:16 10° 12° (NNE) 2,464 7.3 -15.7°
Sets 20:25:43 0° 13° (NNE) 3,419 8.1 -16.0°
